Location: Unspecified
(33.6682°S, 0.0000°E)
Time: 19:19:11
(UTC+00:00)

Vanguard 2 - Visible Passes

Search period start: 16 June 2019 00:00
Search period end: 26 June 2019 00:00
Orbit: 553 x 2939 km, 32.9° (Epoch: 16 June)

Date Brightness Start Highest point End Pass type
(mag) Time Alt. Az. Time Alt. Az. Time Alt. Az.
16 Jun 11.2 17:12:53 10° N 17:21:46 16° NE 17:29:35 10° ENE visible
16 Jun 10.1 19:18:27 10° NW 19:33:06 41° NNE 19:35:39 38° NE visible
16 Jun 10.7 21:30:01 10° WNW 21:37:04 32° WNW 21:37:04 32° WNW visible
17 Jun 11.0 17:27:47 10° N 17:39:50 23° NE 17:49:54 10° E visible
17 Jun 9.8 19:35:43 10° NW 19:51:11 50° NNE 19:52:43 48° NE visible
17 Jun 10.9 21:48:11 10° WNW 21:54:08 28° WNW 21:54:08 28° WNW visible
18 Jun 10.9 17:43:47 10° NNW 17:57:53 31° NNE 18:08:20 12° E visible
18 Jun 9.7 19:53:20 10° NW 20:09:18 60° NNE 20:09:45 59° NNE visible
18 Jun 11.1 22:06:31 10° W 22:11:11 23° W 22:11:11 23° W visible
19 Jun 10.6 18:00:24 10° NNW 18:15:54 39° NNE 18:25:21 18° E visible
19 Jun 9.7 20:11:12 10° WNW 20:26:47 68° N 20:26:47 68° N visible
19 Jun 11.3 22:24:55 10° W 22:28:12 19° W 22:28:12 19° W visible
20 Jun 10.4 18:17:29 10° NW 18:33:57 48° NNE 18:42:21 25° E visible
20 Jun 9.7 20:29:18 10° WNW 20:43:46 69° NW 20:43:46 69° NW visible
20 Jun 11.4 22:43:20 10° W 22:45:12 15° W 22:45:12 15° W visible
21 Jun 10.2 18:34:54 10° NW 18:52:02 57° NNE 18:59:21 32° E visible
21 Jun 9.9 20:47:34 10° WNW 21:00:45 62° WNW 21:00:45 62° WNW visible
21 Jun 11.6 23:01:45 10° W 23:02:11 11° W 23:02:11 11° W visible
22 Jun 10.0 18:52:37 10° NW 19:10:09 66° NNE 19:16:18 40° E visible
22 Jun 10.1 21:05:57 10° W 21:17:43 54° W 21:17:43 54° W visible
23 Jun 10.9 16:59:55 10° NNW 17:16:11 45° NNE 17:30:22 10° E visible
23 Jun 9.8 19:10:35 10° WNW 19:28:19 74° NNE 19:33:15 49° E visible
23 Jun 10.4 21:24:23 10° W 21:34:40 45° W 21:34:40 45° W visible
24 Jun 10.7 17:17:09 10° NW 17:34:10 54° NNE 17:48:46 10° E visible
24 Jun 9.7 19:28:43 10° WNW 19:46:33 81° NNE 19:50:10 60° E visible
24 Jun 10.6 21:42:51 10° W 21:51:35 38° W 21:51:35 38° W visible
25 Jun 10.5 17:34:41 10° NW 17:52:13 63° NNE 18:05:40 15° E visible
25 Jun 9.6 19:47:02 10° WNW 20:04:49 85° N 20:07:05 71° E visible
25 Jun 10.9 22:01:18 10° W 22:08:29 32° W 22:08:29 32° W visible
